Weather History for Lovelock, NV

Change the Weather History Date:

Sunday, November 3, 2013

  Actual Average Record
Temperature  
Mean Temperature 42 °F -  
Max Temperature 48 °F 60 °F 75 °F (1950)
Min Temperature 37 °F 26 °F 6 °F (2002)
Degree Days  
Heating Degree Days 24    
Moisture  
Dew Point 21 °F    
Average Humidity 45    
Maximum Humidity 65    
Minimum Humidity 28    
Precipitation  
Precipitation 0.00 in - - ()
Sea Level Pressure  
Sea Level Pressure 30.02 in    
Wind  
Wind Speed 11 mph (NNE)    
Max Wind Speed 23 mph    
Max Gust Speed 33 mph    
Visibility 10 miles    
Events      
Averages and records for this station are not official NWS values.
T = Trace of Precipitation, MM = Missing Value Source: NWS Daily Summary

Daily Weather History Graph

Daily Weather History Graph

Search for Another Location

Airport:

Trip Planner

Search our weather history database for the weather conditions in past years. The results will help you decide how hot, cold, wet, or windy it might be!

Date:

Astronomy

Nov. 03, 2013 Rise Set
Actual Time 6:26 AM PST 4:48 PM PST
Civil Twilight 5:57 AM PST 5:17 PM PST
Nautical Twilight 5:25 AM PST 5:49 PM PST
Astronomical Twilight 4:54 AM PST 6:21 PM PST
Moon 6:35 AM PST (11/3) 5:07 PM PST (11/3)
Length of Visible Light 11h 19m
Length of Day
10h 22m
New Moon, 0% of the Moon is Illuminated
Nov 3
New Moon
Nov 9
First Quarter
Nov 17
Full
Nov 25
Last Quarter
Dec 2
New

Hourly Weather History & Observations

Time (PST) Temp. Windchill Dew Point Humidity Pressure Visibility Wind Dir Wind Speed Gust Speed Precip Events Conditions
12:53 AM 46.0 °F 37.8 °F 26.1 °F 46% 29.94 in 10.0 mi NNW 23.0 mph 33.4 mph 0.00 in   Overcast
1:53 AM 44.1 °F 36.8 °F 26.1 °F 49% 29.95 in 10.0 mi North 16.1 mph 26.5 mph N/A   Overcast
1:53 AM 43.0 °F 36.4 °F 26.1 °F 51% 29.96 in 10.0 mi NNW 12.7 mph - N/A   Overcast
2:53 AM 42.1 °F 37.7 °F 26.1 °F 53% 29.96 in 10.0 mi North 6.9 mph - N/A   Overcast
3:53 AM 41.0 °F 33.9 °F 27.0 °F 57% 29.99 in 10.0 mi NNW 12.7 mph - N/A   Overcast
4:53 AM 39.9 °F 35.1 °F 26.1 °F 58% 30.01 in 10.0 mi North 6.9 mph - N/A   Overcast
5:53 AM 39.0 °F 34.0 °F 25.0 °F 57% 30.03 in 10.0 mi North 6.9 mph - N/A   Overcast
6:53 AM 37.0 °F 30.4 °F 26.1 °F 65% 30.05 in 10.0 mi NNE 9.2 mph - N/A   Overcast
7:53 AM 37.9 °F 33.5 °F 25.0 °F 60% 30.08 in 10.0 mi NE 5.8 mph - N/A   Clear
8:53 AM 39.9 °F 33.9 °F 24.1 °F 53% 30.08 in 10.0 mi NNE 9.2 mph - N/A   Clear
9:53 AM 44.1 °F 38.1 °F 21.9 °F 42% 30.08 in 10.0 mi NNE 11.5 mph - N/A   Clear
10:53 AM 46.0 °F 41.4 °F 19.9 °F 35% 30.08 in 10.0 mi NE 9.2 mph - N/A   Clear
11:53 AM 46.9 °F - 17.1 °F 30% 30.06 in 10.0 mi NE 6.9 mph - N/A   Clear
12:53 PM 46.0 °F - 14.0 °F 28% 30.04 in 10.0 mi Calm Calm - N/A   Clear
1:53 PM 46.0 °F - 15.1 °F 29% 30.04 in 10.0 mi Calm Calm - N/A   Clear
2:53 PM 46.0 °F 43.9 °F 14.0 °F 28% 30.04 in 10.0 mi SE 4.6 mph - N/A   Clear
3:53 PM 46.9 °F - 15.1 °F 28% 30.02 in 10.0 mi ENE 6.9 mph - N/A   Clear
4:53 PM 44.1 °F 38.1 °F 17.1 °F 34% 30.01 in 10.0 mi NNE 11.5 mph - N/A   Clear
5:53 PM 42.1 °F 37.7 °F 18.0 °F 38% 30.00 in 10.0 mi NE 6.9 mph - N/A   Clear
6:53 PM 39.9 °F 36.7 °F 19.9 °F 45% 30.02 in 10.0 mi NNE 4.6 mph - N/A   Clear
7:53 PM 41.0 °F 38.0 °F 18.0 °F 40% 30.02 in 10.0 mi North 4.6 mph - N/A   Scattered Clouds
8:53 PM 39.0 °F 35.7 °F 21.0 °F 49% 30.04 in 10.0 mi East 4.6 mph - N/A   Mostly Cloudy
9:53 PM 39.9 °F 37.8 °F 21.0 °F 47% 30.03 in 10.0 mi North 3.5 mph - N/A   Mostly Cloudy
10:53 PM 39.0 °F 34.8 °F 21.9 °F 50% 30.01 in 10.0 mi NE 5.8 mph - N/A   Overcast